Simultaneous Nadir Overpasses (SNOs) Predictions

Prediction of SNOs between AQUA and NOAA-19 Satellite Orbit:

Table of predicted SNOs for the next 14.0 days since TLE Epoch: 1/2/2017
Index Date (AQUA) Time (AQUA) Lat,Lon (AQUA) SZA (AQUA ) Date (NOAA-19) Time (NOAA-19) Lat,Lon (NOAA-19) SZA (NOAA-19 ) Distance(km) Time Diff (sec)
1 01/04/2017 02:03:43 -80.96, -71.65 74.18 01/04/2017 02:03:50 -80.95, -71.76 74.17 2.03 7
2 01/06/2017 06:48:17 -81.33,-148.75 73.50 01/06/2017 06:47:03 -80.97,-149.40 73.64 42.04 74
3 01/06/2017 07:37:27 80.95, 24.99 105.59 01/06/2017 07:37:39 80.95, 25.16 105.56 3.03 12
4 01/08/2017 12:21:45 80.97, -46.29 105.36 01/08/2017 12:20:35 80.96, -46.18 105.37 2.23 70
5 01/08/2017 13:11:11 -80.96, 121.50 74.67 01/08/2017 13:11:40 -80.95, 121.59 74.70 1.73 29
6 01/10/201
